EW0446 Weather Reports


time (UTC)temp
F
wind
direction
speed
knots
gust
knots
rain 1hr
in
rain 24hr
in
rain mn
in
humidity
%
barometer
mb
20260507210013 73 206 11.3 20.0 0.00 0.00 0.00 30 1008.7
20260507204510 73 188 7.0 15.6 0.00 0.00 0.00 31 1008.8
20260507203010 72 235 10.4 19.1 0.00 0.00 0.00 32 1009.2
20260507201505 71 214 10.4 21.7 0.00 0.00 0.00 33 1009.6
20260507200001 71 245 13.0 21.7 0.00 0.00 0.00 33 1009.7
20260507194604 71 208 13.9 20.9 0.00 0.00 0.00 33 1009.9
20260507193058 70 185 13.0 20.9 0.00 0.00 0.00 35 1009.9
20260507191556 70 198 13.0 20.9 0.00 0.00 0.00 36 1010.2
20260507190054 69 235 13.0 20.0 0.00 0.00 0.00 34 1010.1
20260507184554 69 216 15.6 21.7 0.00 0.00 0.00 35 1010.3
20260507183050 68 189 13.0 20.0 0.00 0.00 0.00 37 1010.6
20260507181547 67 208 13.9 22.6 0.00 0.00 0.00 38 1010.9
20260507180048 66 193 15.6 21.7 0.00 0.00 0.00 38 1011.2
20260507174550 66 351 13.0 19.1 0.00 0.00 0.00 40 1011.5
20260507173045 65 173 14.8 23.5 0.00 0.00 0.00 41 1011.9
20260507171550 65 194 13.9 18.2 0.00 0.00 0.00 41 1012.1
20260507170035 65 217 10.4 18.2 0.00 0.00 0.00 41 1012.4
20260507164533 64 178 15.6 21.7 0.00 0.00 0.00 43 1012.4
20260507163030 63 222 12.2 20.9 0.00 0.00 0.00 43 1012.8
20260507161528 63 207 13.0 20.9 0.00 0.00 0.00 44 1012.9
20260507160026 62 233 10.4 20.9 0.00 0.00 0.00 45 1013.1
20260507154524 62 200 13.9 22.6 0.00 0.00 0.00 46 1013.2
20260507153022 61 221 14.8 20.9 0.00 0.00 0.00 47 1013.3
20260507151519 60 220 13.9 20.0 0.00 0.00 0.00 49 1013.5
20260507150016 60 233 12.2 17.4 0.00 0.00 0.00 52 1013.7
20260507144515 58 231 11.3 21.7 0.00 0.00 0.00 55 1014.2
20260507143010 57 218 12.2 16.5 0.00 0.00 0.00 56 1014.6
20260507141507 56 231 12.2 17.4 0.00 0.00 0.00 59 1014.7
20260507140006 55 351 8.7 14.8 0.00 0.00 0.00 62 1014.3
20260507134502 54 237 11.3 16.5 0.00 0.00 0.00 63 1014.3
20260507133059 53 351 7.8 13.9 0.00 0.00 0.00 68 1014.4
20260507131554 51 227 5.2 12.2 0.00 0.00 0.00 73 1014.4
20260507130055 50 204 5.2 9.6 0.00 0.00 0.00 76 1014.5
20260507124546 48 198 6.1 9.6 0.00 0.00 0.00 78 1014.5
20260507123049 47 196 6.1 10.4 0.00 0.00 0.00 79 1014.5
20260507121546 46 194 6.1 7.8 0.00 0.00 0.00 80 1014.4
20260507120046 45 183 5.2 8.7 0.00 0.00 0.00 80 1014.5
20260507114544 45 196 5.2 8.7 0.00 0.00 0.00 81 1014.5
20260507113042 45 216 6.1 7.8 0.00 0.00 0.00 81 1014.4
20260507111547 45 214 4.3 7.8 0.00 0.00 0.00 80 1014.4
20260507110039 45 212 4.3 7.8 0.00 0.00 0.00 80 1014.5
20260507104539 45 203 5.2 8.7 0.00 0.00 0.00 79 1014.5
20260507103041 46 196 6.1 9.6 0.00 0.00 0.00 78 1014.5
20260507101545 46 195 5.2 7.8 0.00 0.00 0.00 78 1014.6
20260507100041 45 197 5.2 7.0 0.00 0.00 0.00 78 1014.6
20260507094542 45 184 4.3 5.2 0.00 0.00 0.00 77 1014.7
20260507093035 45 184 3.5 5.2 0.00 0.00 0.00 76 1014.9
20260507091531 45 190 2.6 5.2 0.00 0.00 0.00 75 1014.9
20260507090034 45 198 5.2 7.0 0.00 0.00 0.00 75 1015.0
20260507084534 45 188 3.5 4.3 0.00 0.00 0.00 74 1015.2
20260507083024 45 190 1.7 3.5 0.00 0.00 0.00 73 1015.4
20260507081525 45 189 0.9 2.6 0.00 0.00 0.00 72 1015.5
20260507080020 45 189 1.7 3.5 0.00 0.00 0.00 71 1015.5
20260507074518 46 189 2.6 3.5 0.00 0.00 0.00 70 1015.6
20260507073016 46 187 1.7 3.5 0.00 0.00 0.00 69 1015.7
20260507071514 47 187 2.6 4.3 0.00 0.00 0.00 66 1015.8
20260507070018 48 204 2.6 7.0 0.00 0.00 0.00 64 1016.0
20260507064511 48 214 3.5 7.0 0.00 0.00 0.00 64 1016.3
20260507063010 47 208 2.6 6.1 0.00 0.00 0.00 64 1016.3
20260507061508 46 202 2.6 4.3 0.00 0.00 0.00 63 1016.3
20260507060006 46 192 2.6 4.3 0.00 0.00 0.00 62 1016.4
20260507054503 46 191 2.6 4.3 0.00 0.00 0.00 60 1016.5
20260507053110 47 175 3.5 7.0 0.00 0.00 0.00 58 1016.5
20260507051559 48 188 5.2 7.0 0.00 0.00 0.00 57 1016.5
20260507050056 48 175 3.5 6.1 0.00 0.00 0.00 56 1016.4
20260507044600 48 169 3.5 5.2 0.00 0.00 0.00 56 1016.4
20260507043058 49 178 3.5 5.2 0.00 0.00 0.00 55 1016.4
20260507041559 49 177 2.6 5.2 0.00 0.00 0.00 54 1016.5
20260507040054 49 182 1.7 3.5 0.00 0.00 0.00 53 1016.5
20260507034605 49 183 2.6 4.3 0.00 0.00 0.00 53 1016.6
20260507033055 49 248 1.7 3.5 0.00 0.00 0.00 51 1016.7
20260507031553 50 291 1.7 2.6 0.00 0.00 0.00 49 1016.7
20260507030100 50 291 1.7 2.6 0.00 0.00 0.00 47 1016.6
20260507024556 51 291 0.9 2.6 0.00 0.00 0.00 44 1016.6
20260507023053 52 291 2.6 3.5 0.00 0.00 0.00 43 1016.4
20260507021551 52 291 1.7 2.6 0.00 0.00 0.00 41 1016.3
20260507020052 53 291 0.9 1.7 0.00 0.00 0.00 39 1016.3
20260507014553 55 291 0.0 0.9 0.00 0.00 0.00 36 1016.1
20260507013058 56 291 0.0 1.7 0.00 0.00 0.00 35 1016.1
20260507011550 57 291 0.9 1.7 0.00 0.00 0.00 34 1016.0
20260507010049 58 291 1.7 4.3 0.00 0.00 0.00 33 1016.0
20260507004548 59 266 3.5 7.8 0.00 0.00 0.00 32 1016.1
20260507003047 59 283 2.6 8.7 0.00 0.00 0.00 32 1016.0
20260507001548 60 285 2.6 7.0 0.00 0.00 0.00 33 1016.0
20260507000052 60 273 3.5 7.0 0.00 0.00 0.00 31 1016.1
20260506234553 60 254 3.5 9.6 0.00 0.00 0.00 31 1016.2
20260506233046 60 284 5.2 8.7 0.00 0.00 0.00 32 1016.3
20260506231546 60 292 7.0 14.8 0.00 0.00 0.00 31 1016.3
20260506230044 61 286 5.2 12.2 0.00 0.00 0.00 32 1016.4
20260506224558 61 273 6.1 11.3 0.00 0.00 0.00 30 1016.5
20260506223042 60 277 6.1 10.4 0.00 0.00 0.00 32 1016.5
20260506221542 60 351 7.8 12.2 0.00 0.00 0.00 31 1016.5
20260506220040 60 230 7.0 12.2 0.00 0.00 0.00 31 1016.8
20260506214549 60 351 5.2 12.2 0.00 0.00 0.00 32 1016.9
20260506213042 60 312 7.0 11.3 0.00 0.00 0.00 32 1017.1
20260506211535 59 278 4.3 10.4 0.00 0.00 0.00 37 1017.3